Regional Weather Roundup
Issued by NWS

Home | Current Version | Previous Version | Graphics & Text | Print | Product List | Glossary On
Versions: 1 2 3 4 5 6 7 8 9 10 11 12 13 14 15 16 17 18 19 20 21 22 23 24 25 26 27 28 29 30 31 32 33 34 35 36 37 38 39 40 41 42 43 44 45 46 47 48 49 50
000
ASUS43 KOAX 240210
RWRNE

WEATHER ROUNDUP FOR NEBRASKA
NATIONAL WEATHER SERVICE OMAHA NE
900 PM CDT WED JUL 23 2014

NOTES: SATELLITE DATA IS BEING USED TO AUGMENT CLOUD COVER ABOVE
       12000 FEET.
       "FAIR" INDICATES FEW OR NO CLOUDS BELOW 12,000 FEET WITH NO
       SIGNIFICANT WEATHER AND/OR OBSTRUCTIONS TO VISIBILITY.

  * THESE STATIONS DO NOT REPORT WEATHER SUCH AS RAIN...SNOW OR FOG.

NEZ001>004-019>022-054>056-240300-
NEBRASKA PANHANDLE

CITY           SKY/WX    TMP DP  RH WIND       PRES   REMARKS
SCOTTSBLUFF    MOCLDY    84  69  60 SE9       30.10F
ALLIANCE       MOCLDY    84  64  50 SE15      30.12S
CHADRON        PTCLDY    89  65  44 S9        30.03F HX  91
KIMBALL        CLEAR     84  58  41 S14       30.15F
SIDNEY         CLEAR     87  61  41 SE15      30.16F
$$

NEZ057>060-069>072-079>082-240300-
SOUTHWEST NEBRASKA

CITY           SKY/WX    TMP DP  RH WIND       PRES   REMARKS
NORTH PLATTE   CLEAR     73  63  70 E12       30.17R
IMPERIAL       CLEAR     77  63  61 SE16      30.15F
LEXINGTON      CLEAR     75  63  65 E8        30.17S
MCCOOK         CLEAR     75  65  70 E10       30.16R
OGALLALA       PTCLDY    76  65  69 E9        30.15S
$$

NEZ005>010-023>029-035>040-094-240300-
NORTH CENTRAL NEBRASKA

CITY           SKY/WX    TMP DP  RH WIND       PRES   REMARKS
VALENTINE      CLEAR     80  58  46 SE13      30.13S
AINSWORTH      CLEAR     76  55  49 SE10      30.16S
BROKEN BOW     CLEAR     74  61  63 SE10      30.18S
O`NEILL        CLEAR     74  58  56 E8        30.17S
ORD            CLEAR     74  60  61 SE5       30.16S
THEDFORD       CLEAR     78  60  53 SE13      30.17S
$$

NEZ041-046>049-061>064-073>077-083>087-240300-
SOUTH CENTRAL NEBRASKA

CITY           SKY/WX    TMP DP  RH WIND       PRES   REMARKS
GRAND ISLAND   CLEAR     74  62  66 SE3       30.17S
AURORA         CLEAR     73  65  77 E5        30.17R
HASTINGS       CLEAR     75  58  55 SE6       30.18R
HEBRON         CLEAR     72  63  71 CALM      30.16R
HOLDREGE       CLEAR     73  64  75 E9        30.17S
KEARNEY *      CLEAR     73  63  68 E8        30.18S
YORK           CLEAR     72  64  78 NE7       30.16S
$$

NEZ011>018-030>034-042>045-240300-
NORTHEAST NEBRASKA

CITY           SKY/WX    TMP DP  RH WIND       PRES   REMARKS
NORFOLK        CLEAR     74  60  61 E3        30.16S
ALBION         CLEAR     72  60  66 E6        30.17S
BLAIR          CLEAR     73  61  66 E5        30.16R
COLUMBUS *     CLEAR     72  61  68 E5        30.16R
FREMONT        CLEAR     78  62  57 E6        30.16R
TEKAMAH        CLEAR     74  63  68 E5        30.14S
WAYNE          CLEAR     71  63  75 E5        30.17S
$$

NEZ050>053-065>068-078-088>093-240300-
SOUTHEAST NEBRASKA

CITY           SKY/WX    TMP DP  RH WIND       PRES   REMARKS
LINCOLN        CLEAR     77  60  55 NE8       30.15R
OMAHA EPPLEY   PTCLDY    78  61  55 NE5       30.14S
BEATRICE         N/A     75  64  67 CALM      30.15R HAZE
FALLS CITY     CLEAR     76  66  71 E3        30.13R
NEBRASKA CITY  CLEAR     73  61  65 CALM      30.15R
PLATTSMOUTH    CLEAR     75  61  60 NE3       30.15R
$$

NEZ044-045-051>053-067-240300-
OMAHA AREA

CITY           SKY/WX    TMP DP  RH WIND       PRES   REMARKS
OMAHA EPPLEY   PTCLDY    78  61  55 NE5       30.14S
BLAIR          CLEAR     73  61  66 E5        30.16R
FREMONT        CLEAR     78  62  57 E6        30.16R
MILLARD        CLEAR     79  61  55 CALM      30.14R
OFFUTT AFB     CLEAR     74  64  70 N1        30.14R
PLATTSMOUTH    CLEAR     75  61  60 NE3       30.15R
WAHOO          FAIR      74  63  69 E5        30.15R
$$


USA.gov is the U.S. government's official web portal to all federal, state and local government web resources and services.